Laramie, WY

10:54 PM MDT on March 25, 2017 (GMT -0600)
Laramie Regional

Weather History for KLAR - December, 2014

Change the Weather History Date:

Tuesday, December 30, 2014

  Actual Average Record
Temperature  
Mean Temperature -18 °F 21 °F  
Max Temperature -6 °F 33 °F 56 °F (1980)
Min Temperature -31 °F 10 °F -31 °F (2014)
Degree Days  
Heating Degree Days 83 44  
Month to date heating degree days 1231 1312  
Since 1 July heating degree days 3359 3624  
Cooling Degree Days 0 0  
Month to date cooling degree days 0 0  
Year to date cooling degree days 67 67  
Moisture  
Dew Point -19 °F    
Average Humidity 78    
Maximum Humidity 91    
Minimum Humidity 65    
Precipitation  
Precipitation T in 0.01 in 0.21 in (1973)
Month to date precipitation 0.14 0.31  
Year to date precipitation 13.84 10.91  
Sea Level Pressure  
Sea Level Pressure 30.56 in    
Wind  
Wind Speed 8 mph (SE)    
Max Wind Speed 16 mph    
Max Gust Speed 20 mph    
Visibility 8 miles    
Events Snow    
T = Trace of Precipitation, MM = Missing Value Source: NWS Daily Summary

Daily Weather History Graph

Daily Weather History Graph

Search for Another Location

Airport or City:

Trip Planner

Search our weather history database for the weather conditions in past years. The results will help you decide how hot, cold, wet, or windy it might be!

Date:

Astronomy

Dec. 30, 2014 Rise Set
Actual Time 7:28 AM MST 4:42 PM MST
Civil Twilight 6:57 AM MST 5:13 PM MST
Nautical Twilight 6:22 AM MST 5:48 PM MST
Astronomical Twilight 5:48 AM MST 6:22 PM MST
Moon 12:58 PM MST (12/30) 1:51 AM MST (12/30)
Length of Visible Light 10h 16m
Length of Day
9h 14m
Waxing Gibbous, 72% of the Moon is Illuminated
Dec 30
Waxing Gibbous
Jan 4
Full
Jan 13
Last Quarter
Jan 20
New
Jan 26
First Quarter

Hourly Weather History & Observations

Time (MST) Temp. Windchill Dew Point Humidity Pressure Visibility Wind Dir Wind Speed Gust Speed Precip Events Conditions
12:53 AM -6.0 °F -26.3 °F -13.0 °F 72% 30.56 in 6.0 mi East 13.8 mph - 0.00 in Snow Light Snow
1:53 AM -7.1 °F -25.9 °F -14.1 °F 72% 30.58 in 10.0 mi East 11.5 mph - 0.00 in   Overcast
2:02 AM -7.1 °F -26.8 °F -14.1 °F 72% 30.22 in 3.0 mi East 12.7 mph - 0.00 in Snow Light Snow
2:10 AM -7.1 °F -25.0 °F -14.1 °F 72% 30.22 in 2.0 mi East 10.4 mph - 0.00 in Snow Light Snow
2:28 AM -7.1 °F -27.6 °F -14.1 °F 72% 30.22 in 3.0 mi East 13.8 mph - 0.00 in Snow Light Snow
2:41 AM -8.0 °F -26.1 °F -14.1 °F 75% 30.22 in 2.5 mi East 10.4 mph - 0.00 in Snow Light Snow
2:53 AM -9.0 °F -28.4 °F -14.1 °F 79% 30.60 in 3.0 mi East 11.5 mph - 0.00 in Snow Light Snow
3:30 AM -9.9 °F -27.5 °F -17.0 °F 71% 30.22 in 9.0 mi East 9.2 mph - 0.00 in   Overcast
3:53 AM -11.0 °F -27.6 °F -18.0 °F 71% 30.61 in 10.0 mi East 8.1 mph - 0.00 in   Overcast
4:27 AM -9.9 °F -29.6 °F -17.0 °F 71% 30.21 in 4.0 mi East 11.5 mph - 0.00 in Snow Light Snow
4:53 AM -13.0 °F -27.0 °F -18.0 °F 78% 30.66 in 7.0 mi ESE 5.8 mph - 0.00 in   Overcast
5:13 AM -14.1 °F -29.9 °F -18.9 °F 79% 30.24 in 10.0 mi SE 6.9 mph - N/A   Overcast
5:53 AM -13.0 °F -28.6 °F -18.0 °F 78% 30.67 in 4.0 mi SE 6.9 mph - 0.00 in Snow Light Snow
6:53 AM -15.0 °F -27.4 °F -18.9 °F 82% 30.69 in 10.0 mi East 4.6 mph - 0.00 in   Mostly Cloudy
7:53 AM -17.0 °F - -20.9 °F 82% 30.71 in 10.0 mi Calm Calm - N/A   Clear
8:53 AM -18.9 °F -32.0 °F -22.0 °F 86% 30.76 in 10.0 mi South 4.6 mph - N/A   Clear
9:11 AM -18.9 °F -29.5 °F -23.1 °F 81% 30.29 in 10.0 mi East 3.5 mph - N/A   Mostly Cloudy
9:41 AM -17.0 °F - -18.9 °F 91% 30.28 in 10.0 mi Calm Calm - N/A   Scattered Clouds
9:53 AM -14.1 °F - -17.0 °F 87% 30.75 in 10.0 mi Calm Calm - N/A   Partly Cloudy
10:35 AM -16.1 °F -28.6 °F -20.9 °F 79% 30.27 in 9.0 mi West 4.6 mph - 0.00 in Snow Light Snow
10:53 AM -16.1 °F -30.6 °F -20.9 °F 79% 30.75 in 10.0 mi West 5.8 mph - 0.00 in   Partly Cloudy
11:53 AM -9.0 °F -30.2 °F -16.1 °F 71% 30.68 in 10.0 mi SSE 13.8 mph - N/A   Clear
12:53 PM -8.0 °F -28.0 °F -15.0 °F 71% 30.64 in 10.0 mi SSE 12.7 mph - N/A   Clear
1:53 PM -8.0 °F -28.8 °F -16.1 °F 68% 30.63 in 10.0 mi SSE 13.8 mph - N/A   Clear
2:53 PM -8.0 °F -26.1 °F -16.1 °F 68% 30.64 in 10.0 mi SSE 10.4 mph - N/A   Clear
3:53 PM -9.9 °F -21.5 °F -17.0 °F 71% 30.66 in 10.0 mi SSE 4.6 mph - N/A   Clear
4:53 PM -14.1 °F -31.3 °F -18.9 °F 79% 30.70 in 10.0 mi SSE 8.1 mph - N/A   Clear
5:53 PM -18.0 °F -36.1 °F -22.0 °F 82% 30.73 in 10.0 mi South 8.1 mph - N/A   Clear
6:53 PM -20.0 °F -41.1 °F -24.0 °F 82% 30.75 in 10.0 mi South 10.4 mph - N/A   Clear
7:53 PM -18.9 °F -35.8 °F -23.1 °F 81% 30.77 in 10.0 mi SSE 6.9 mph - N/A   Clear
8:53 PM -23.1 °F -40.7 °F -27.0 °F 82% 30.80 in 10.0 mi SSE 6.9 mph - N/A   Clear
9:53 PM -23.1 °F -42.3 °F -27.9 °F 78% 30.75 in 10.0 mi South 8.1 mph - N/A   Clear
10:53 PM -26.0 °F -45.8 °F -27.9 °F 90% 30.78 in 10.0 mi SSW 8.1 mph - N/A   Clear
11:53 PM -24.0 °F - -27.9 °F 82% 30.71 in 10.0 mi Calm Calm - N/A   Clear